sat.trackr.live / text

‹ back to catalog

STARLINK-35947

NORAD 66883 · 2025-283F

PAYLOAD ACTIVE UNKNOWN

§ Identity

Operator
Country
US
Launch date
2025-12-04
Launch site
AFWTR
Launch vehicle
Mass (kg)
RCS (m²)

Purposes: comms

External: N2YO · Heavens-Above · Gunter

§ Orbital elements

Epoch: 2026-05-24T22:44:59.368704Z

Period
93.85 min
Inclination
53.1614°
Eccentricity
0.0000537
Mean motion
15.34396318 rev/d
Perigee alt
462.3 km
Apogee alt
463.1 km
Semi-major
6,840.9 km
B*
6.5040e-4
RAAN
29.6748°
Arg perigee
21.7215°
Mean anomaly
338.3811°
Rev number
2,754

§ Raw data

STARLINK-359471 66883U 25283F   26144.94790936  .00021660  00000+0  65040-3 0  99972 66883  53.1614  29.6748 0000537  21.7215 338.3811 15.34396318 27540

JSON: /api/v1/satellites/66883 · /tle

For live sub-satellite position, see the globe view (requires WebGL).

§ Visibility from observer

Set your observer location to see the next 7 days of passes ≥ 10°. The values pass through the URL so the page stays shareable.

No JS? Fill the form by hand. The geolocation button needs JavaScript.